#timestamp,LO_Frequency,Hit,StdDev 
1608289215.2,286046973.5,N
1608289235.0,286046968.2,N
1608289235.9,286046968.2,N
1608289255.8,286046969.5,N
1608289275.6,286046974.0,N
1608289295.5,286046969.3,N
1608289315.3,286046971.5,N
1608289335.1,286046978.4,N
1608289355.9,286046980.7,N
1608289375.7,286046985.2,N
1608289395.5,286046986.3,N
1608289415.4,286046987.2,N
1608289435.2,286046990.9,N
1608289455.1,286046993.2,N
1608289456.0,286046993.2,N
1608289475.8,286046997.3,N
1608289495.6,286047004.5,N
1608289515.5,286047010.6,N
1608289535.3,286047010.5,N
1608289555.1,286047009.7,N
1608289575.9,286047013.9,N
1608289595.7,286047012.7,N
1608289615.6,286047015.4,N
1608289635.4,286047016.7,N
1608289655.2,286047015.9,N
1608289675.1,286047014.9,N
1608289676.0,286047014.9,N
1608289695.8,286047016.3,N
1608289715.7,286047014.9,N
1608289735.5,286047012.1,N
1608289755.3,286047010.1,N
1608289775.2,286047013.9,N
1608289795.9,286047023.8,N
1608289815.7,286047025.4,N
1608289835.6,286047026.4,N
1608289855.4,286047019.1,N
1608289875.3,286047007.8,N
1608289895.1,286046997.6,N
1608289896.0,286046997.6,N
1608289915.8,286046985.1,N
1608289935.7,286046972.0,N
1608289955.5,286046962.6,N
1608289975.3,286046958.7,N
1608289995.2,286046958.8,N
1608290015.0,286046959.4,N
1608290015.9,286046959.4,N
1608290035.8,286046965.1,N
1608290055.6,286046972.0,N
1608290075.4,286046981.7,N
1608290095.3,286046991.8,N
1608290115.1,286046999.0,N
1608290135.9,286046997.8,N
1608290155.7,286046990.8,N
1608290175.5,286046984.7,N
1608290195.4,286046976.9,N
1608290215.2,286046964.2,N
1608290235.1,286046950.7,N
1608290236.0,286046950.7,N
1608290255.8,286046944.5,N
1608290275.6,286046936.9,N
1608290295.5,286046935.1,N
1608290315.3,286046938.7,N
1608290335.1,286046945.0,N
1608290355.9,286046953.7,N
1608290375.7,286046969.6,N
1608290395.6,286046982.3,N
1608290415.4,286046984.6,N
1608290435.2,286046971.1,N
1608290455.1,286046975.6,N
1608290456.0,286046975.6,N
1608290475.8,286046978.0,N
1608290495.7,286046996.9,N
1608290515.5,286046998.2,N
1608290535.3,286047001.5,N
1608290555.2,286047010.4,N
1608290575.0,286047008.6,N
1608290575.9,286047008.6,N
1608290595.8,286047011.4,N
1608290615.6,286047021.3,N
1608290635.4,286047023.1,N
1608290655.3,286047026.7,N
1608290675.1,286047025.9,N
1608290695.8,286047024.5,N
1608290715.7,286047026.3,N
1608290735.5,286047022.2,N
1608290755.4,286047014.6,N
1608290775.2,286047020.1,N
1608290795.0,286047023.9,N
1608290795.9,286047023.9,N
1608290815.8,286047030.2,N
1608290835.6,286047040.9,N
1608290855.4,286047040.1,N
1608290875.3,286047037.1,N
1608290895.1,286047033.0,N
1608290915.9,286047022.4,N
1608290935.7,286047011.0,N
1608290955.5,286047005.3,N
1608290975.4,286046998.1,N
1608290995.2,286046995.2,N
1608291015.0,286046984.0,N
1608291015.9,286046984.0,N
1608291035.8,286046976.4,N
1608291055.6,286046975.3,N
1608291075.5,286046981.7,N
1608291095.3,286046984.4,N
1608291115.1,286046980.3,N
1608291135.9,286046974.0,N
1608291155.7,286046968.9,N
1608291175.5,286046969.1,N
1608291195.4,286046970.0,N
1608291215.2,286046973.6,N
1608291235.1,286046965.0,N
1608291236.0,286046965.0,N
1608291255.8,286046956.1,N
1608291275.6,286046947.9,N
1608291295.5,286046940.0,N
1608291315.3,286046936.4,N
1608291335.2,286046933.1,N
1608291355.9,286046928.3,N
1608291375.7,286046923.7,N
1608291395.6,286046917.6,N
1608291415.4,286046911.3,N
1608291435.2,286046912.2,N
1608291455.1,286046924.0,N
1608291456.0,286046924.0,N
1608291475.8,286046936.0,N
1608291495.7,286046947.3,N
1608291515.5,286046952.6,N
1608291535.3,286046960.5,N
1608291555.2,286046972.3,N
1608291575.0,286046982.0,N
1608291575.9,286046982.0,N
1608291595.8,286046989.1,N
1608291615.6,286046996.8,N
1608291635.4,286046993.2,N
1608291655.3,286046985.9,N
1608291675.1,286046977.1,N
1608291695.9,286046970.6,N
1608291715.7,286046973.3,N
1608291765.6,286046986.0,E
1608291775.5,286046995.3,N
1608291795.3,286047008.3,P
1608291815.2,286047018.7,N
1608291835.9,286047022.8,N
1608291855.7,286047020.6,N
1608291875.6,286047023.2,N
1608291895.4,286047019.0,N
1608291915.2,286047020.5,N
1608291935.1,286047025.5,N
1608291936.0,286047025.5,N
1608291955.8,286047029.6,Y
1608291975.7,286047009.7,P
1608291995.5,286047013.7,P
1608292015.3,286047007.1,N
1608292035.2,286047006.0,N
1608292055.0,286047010.4,N
1608292055.9,286047010.4,N
1608292075.8,286047013.0,Y
1608292095.6,286047009.1,P
1608292115.4,286047012.2,P
1608292135.3,286047013.4,P
1608292155.1,286047009.8,Y
1608292175.9,286047002.6,P
1608292195.7,286047002.1,N
1608292215.5,286046996.3,N
1608292235.4,286046992.1,N
1608292255.2,286046997.2,N
1608292275.0,286046993.5,N
1608292275.9,286046993.5,N
1608292295.8,286046991.7,N
1608292315.6,286046999.9,N
1608292335.5,286047012.2,N
1608292355.3,286047014.2,N
1608292375.1,286047009.8,N
1608292395.9,286047007.3,N
1608292415.7,286047007.2,N
1608292435.5,286047004.0,N
1608292455.4,286047006.2,N
1608292475.2,286047009.2,N
1608292495.1,286047003.1,N
1608292496.0,286047003.1,N
1608292515.8,286047000.2,N
1608292535.6,286047000.2,N
1608292555.5,286047003.5,N
1608292575.3,286047000.7,N
1608292595.1,286046994.2,N
1608292615.9,286046982.1,N
1608292635.7,286046979.3,N
1608292655.6,286046984.9,N
1608292675.4,286046984.2,N
1608292695.2,286046986.6,N
1608292715.1,286046989.5,N
1608292716.0,286046989.5,N
1608292735.8,286046992.2,N
1608292755.6,286046999.5,N
1608292775.5,286047001.4,N
1608292795.3,286047002.2,N
